This demonstration page uses our WeatherBlox Daily Observations layout. Learn more.

Left ArrowRight Arrow

Hourly Observations for June 7, 2017

Temp ( °F °C ) Dew Point ( °F °C ) Humidity (%) Winds ( mph kmh ) Pressure ( in mb ) Visibility ( mi km ) Precip ( " mm )
12:56 am 00:56 Clear 59 15.2 53 11.6 79 79 Calm 30.06 1018 10 16 0.00 0.00
1:56 am 01:56 Mostly Clear 59 15.2 53 11.4 78 78 Calm 30.06 1018 10 16 0.00 0.00
2:56 am 02:56 Clear 58 14.6 51 10.8 78 78 E 3 6 30.06 1018 10 16 0.00 0.00
3:56 am 03:56 Clear 54 12.3 51 10.5 89 89 E 3 6 30.08 1019 10 16 0.00 0.00
4:56 am 04:56 Clear 53 11.9 51 10.5 91 91 Calm 30.09 1019 10 16 0.00 0.00
5:56 am 05:56 Sunny 54 12.2 51 10.4 89 89 Calm 30.10 1019 10 16 0.00 0.00
6:56 am 06:56 Sunny 58 14.2 53 11.9 86 86 Calm 30.11 1020 10 16 0.00 0.00
7:56 am 07:56 Sunny 65 18.6 55 13 70 70 E 3 6 30.12 1020 10 16 0.00 0.03
8:56 am 08:56 Sunny 69 20.6 53 11.8 57 57 SSE 6 9 30.11 1020 10 16 0.00 0.00
9:56 am 09:56 Sunny 74 23.1 55 12.7 52 52 SE 5 7 30.11 1020 10 16 0.00 0.00
10:56 am 10:56 Sunny 78 25.3 51 10.3 39 39 S 7 11 30.10 1019 10 16 0.00 0.00
11:58 am 11:58 Partly Cloudy 79 26 64 18 61 61 SSE 3 6 30.06 1018 7 11 0.00 0.00
12:56 pm 12:56 Mostly Sunny 80 26.9 48 8.8 32 32 SE 7 11 30.09 1019 10 16 0.00 0.00
1:56 pm 13:56 Mostly Sunny 81 27.4 48 8.8 31 31 E 9 15 30.08 1019 10 16 0.00 0.00
2:56 pm 14:56 Mostly Sunny 82 28 47 8.3 29 29 ESE 5 7 30.06 1018 10 16 0.00 0.00
3:56 pm 15:56 Sunny 84 28.7 47 8.4 28 28 E 12 19 30.06 1018 10 16 0.00 0.00
4:56 pm 16:56 Sunny 83 28.3 47 8.5 29 29 S 6 9 30.05 1018 10 16 0.00 0.00
5:56 pm 17:56 Mostly Sunny 80 26.9 48 8.8 32 32 SSE 8 13 30.03 1017 10 16 0.00 0.00
6:56 pm 18:56 Sunny 81 27.4 46 7.8 29 29 S 7 11 30.03 1017 10 16 0.00 0.00
7:56 pm 19:56 Sunny 79 26 46 8 32 32 SSE 8 13 30.01 1016 10 16 0.00 0.00
8:56 pm 20:56 Clear 74 23.5 48 9.1 40 40 SSE 5 7 30.00 1016 10 16 0.00 0.00
9:56 pm 21:56 Clear 64 17.7 53 11.9 69 69 ESE 3 6 30.01 1016 10 16 0.00 0.00
10:56 pm 22:56 Clear 61 16.3 53 11.4 73 73 E 5 7 30.03 1017 10 16 0.00 0.00

Powered by AerisWeather